Ignacio, CO

5:58 AM MST on February 19, 2017 (GMT -0700)
Durango-La Plata County

Weather History for KDRO - June, 2013

Change the Weather History Date:

Thursday, June 27, 2013

  Actual Average Record
Temperature  
Mean Temperature 72 °F 65 °F  
Max Temperature 96 °F 85 °F 98 °F (1990)
Min Temperature 48 °F 46 °F 35 °F (1985)
Degree Days  
Heating Degree Days 0 1  
Month to date heating degree days 40 112  
Since 1 June heating degree days 40 112  
Since 1 July heating degree days 7146 7120  
Cooling Degree Days 7 2  
Month to date cooling degree days 33 22  
Year to date cooling degree days 33 23  
Since 1 June cooling degree days 33 22  
Growing Degree Days 22 (Base 50)    
Moisture  
Dew Point 31 °F    
Average Humidity 28    
Maximum Humidity 48    
Minimum Humidity 7    
Precipitation  
Precipitation 0.00 in 0.03 in 0.10 in (1987)
Month to date precipitation T 0.53  
Year to date precipitation 3.75 5.96  
Sea Level Pressure  
Sea Level Pressure 30.01 in    
Wind  
Wind Speed 4 mph (NE)    
Max Wind Speed 23 mph    
Max Gust Speed 29 mph    
Visibility 10 miles    
Events      
T = Trace of Precipitation, MM = Missing Value Source: NWS Daily Summary

Daily Weather History Graph

Daily Weather History Graph

Search for Another Location

Airport or City:

Trip Planner

Search our weather history database for the weather conditions in past years. The results will help you decide how hot, cold, wet, or windy it might be!

Date:

Astronomy

Jun. 27, 2013 Rise Set
Actual Time 5:53 AM MDT 8:35 PM MDT
Civil Twilight 5:22 AM MDT 9:06 PM MDT
Nautical Twilight 4:43 AM MDT 9:44 PM MDT
Astronomical Twilight 4:00 AM MDT 10:27 PM MDT
Moon 11:41 PM MDT (6/27) 10:50 AM MDT (6/27)
Length of Visible Light 15h 43m
Length of Day
14h 42m
Waning Gibbous, 76% of the Moon is Illuminated
Jun 27
Waning Gibbous
Jun 29
Last Quarter
Jul 8
New
Jul 15
First Quarter
Jul 22
Full

Hourly Weather History & Observations

Time (MDT) Temp. Dew Point Humidity Pressure Visibility Wind Dir Wind Speed Gust Speed Precip Events Conditions
12:53 AM 61.0 °F 30.9 °F 32% 29.96 in 10.0 mi Calm Calm - N/A   Clear
1:53 AM 61.0 °F 32.0 °F 34% 29.96 in 10.0 mi NNW 5.8 mph - N/A   Clear
2:53 AM 57.9 °F 32.0 °F 37% 29.97 in 10.0 mi Calm Calm - N/A   Clear
3:53 AM 55.0 °F 30.9 °F 40% 29.99 in 10.0 mi Calm Calm - N/A   Clear
4:53 AM 54.0 °F 32.0 °F 43% 30.00 in 10.0 mi Calm Calm - N/A   Clear
5:53 AM 51.1 °F 32.0 °F 48% 30.04 in 10.0 mi NE 3.5 mph - N/A   Clear
6:53 AM 57.0 °F 34.0 °F 42% 30.05 in 10.0 mi East 3.5 mph - N/A   Clear
7:53 AM 64.0 °F 35.1 °F 34% 30.05 in 10.0 mi NNE 3.5 mph - N/A   Clear
8:53 AM 72.0 °F 35.1 °F 26% 30.05 in 10.0 mi Calm Calm - N/A   Clear
9:53 AM 78.1 °F 36.0 °F 22% 30.04 in 10.0 mi Calm Calm - N/A   Clear
10:53 AM 84.9 °F 34.0 °F 16% 30.03 in 10.0 mi West 3.5 mph - N/A   Clear
11:53 AM 89.1 °F 32.0 °F 13% 30.01 in 10.0 mi Calm Calm - N/A   Clear
12:53 PM 91.0 °F 28.9 °F 11% 30.03 in 10.0 mi Variable 3.5 mph - N/A   Clear
1:53 PM 93.0 °F 27.0 °F 9% 30.00 in 10.0 mi Variable 5.8 mph - N/A   Clear
2:53 PM 93.9 °F 23.0 °F 8% 29.99 in 10.0 mi Variable 3.5 mph - N/A   Clear
3:53 PM 93.9 °F 21.9 °F 7% 29.98 in 10.0 mi South 4.6 mph - N/A   Clear
4:53 PM 93.9 °F 21.0 °F 7% 29.97 in 10.0 mi West 5.8 mph - N/A   Clear
5:53 PM 91.0 °F 30.9 °F 12% 30.00 in 10.0 mi North 13.8 mph 19.6 mph N/A   Clear
6:53 PM 86.0 °F 33.1 °F 15% 30.01 in 10.0 mi North 17.3 mph 21.9 mph N/A   Clear
7:53 PM 82.0 °F 32.0 °F 16% 30.00 in 10.0 mi East 6.9 mph - N/A   Clear
8:53 PM 75.0 °F 34.0 °F 22% 30.00 in 10.0 mi East 3.5 mph - N/A   Clear
9:53 PM 69.1 °F 34.0 °F 27% 30.02 in 10.0 mi ENE 4.6 mph - N/A   Clear
10:53 PM 69.1 °F 34.0 °F 27% 30.01 in 10.0 mi Calm Calm - N/A   Clear
11:53 PM 64.9 °F 33.1 °F 31% 30.01 in 10.0 mi East 5.8 mph - N/A   Clear